Find Starlink 30889

NORAD ID: 58368 Int'l Des: 2023-177 Owner: SPXS Country: US Constellation: starlink operational
LEOCIRCULAR

Current View

Loading 3D Globe...

About Starlink 30889

Starlink 30889 (NORAD 58368) is a starlink constellation satellite (v2 mini) launched Nov 18, 2023 by SPXS of US. It operates in LEO, CIRCULAR orbit with a mass of 730.00 kg.

Upcoming Passes

Passes for default location (London). Set your location on the main map for personalized predictions.

Altitude History

Loading altitude history...

Two-Line Element Set

1 58368U 23177T 26264.24955490 .00000700 00000-0 34956-4 0 9996
2 58368 43.0014 326.3657 0001455 271.7645 88.3040 15.27580527158136
Epoch: Sep 21, 2026 • Age: 45 hours

Current Status

Altitude 482.9 km
Apogee / Perigee N/A
Velocity 7.63 km/s
Sub-Earth Point 18.04°N, 74.64°E
Launch Date Nov 18, 2023
Age 2.8 years
Type internet

Technical Details

Classification Payload
Mass 730.00 kg
Dry Mass 700.00 kg
Length 0.30 m
Span 29.00 m
Shape ? Box + pan
Manufacturer SPXS
Bus Type Starlink V2M
Phase Status In Orbit
Owner/State SPXS/US

Most Searched